Location: Heppenheim
(49.6410°N, 8.6370°E)
Time: 17:20:54
(UTC+02:00)

ISS - Pass Details

Date: 10 May 2026
Orbit: 414 x 424 km, 51.6° (Epoch: 10 May)

Event Time Altitude Azimuth Distance (km) Brightness Sun altitude
Rises 22:28:42 0° 242° (WSW) 2,344 0.2 -12.5°
Reaches altitude 10° 22:30:48 10° 239° (WSW) 1,484 -0.8 -12.7°
Maximum altitude 22:34:06 67° 157° (SSE) 455 -3.9 -13.0°
Drops below altitude 10° 22:37:26 10° 74° (ENE) 1,493 -1.2 -13.4°
Enters shadow 22:39:11 - 72° (ENE) 2,213 -0.3 -13.6°
